Terminal Aerodrome Forecast
Issued by NWS Missoula, MT

Home | Current Version | Previous Version | Text Only | Print | Product List | Glossary On
Versions: 1 2 3 4 5 6 7 8 9 10 11 12 13
000
FTUS45 KMSO 301129
TAFGPI
TAF
KGPI 301129Z 3012/0112 VRB03KT P6SM -SHRA OVC100
     FM301400 14003KT P6SM OVC250
     FM301800 18007KT P6SM BKN100=

USA.gov is the U.S. government's official web portal to all federal, state and local government web resources and services.